Location: *
(48.8667°N, 2.3331°E)
Time: 05:10:02
(UTC+00:00)

Cosmos 1814 Rocket - Pass Details

Date: 09 April 2020
Orbit: 745 x 787 km, 74.1° (Epoch: 01 June)

Event Time Altitude Azimuth Distance (km) Brightness Sun altitude
Rises 21:38:13 0° 334° (NNW) 3,289 8.5 -26.0°
Reaches altitude 10° 21:40:38 10° 332° (NNW) 2,358 7.5 -26.3°
Maximum altitude 21:45:56 65° 252° (WSW) 869 4.2 -26.8°
Enters shadow 21:46:15 63° 232° (SW) 878 4.2 -26.8°
